Simultaneous Nadir Overpasses (SNOs) Predictions

Prediction of SNOs between FY3D and AQUA Satellite Orbit:

Table of predicted SNOs for the next 14.0 days since TLE Epoch: 11/28/2020
Index Date (FY3D) Time (FY3D) Lat,Lon (FY3D) SZA (FY3D ) Date (AQUA) Time (AQUA) Lat,Lon (AQUA) SZA (AQUA ) Distance(km) Time Diff (sec)
1 11/28/2020 23:41:18 -48.10,-142.26 39.05 11/28/2020 23:41:54 -48.14,-142.40 39.08 11.68 36
2 11/29/2020 00:30:30 53.23, 27.44 137.21 11/29/2020 00:29:52 53.23, 27.46 137.28 1.29 38
3 12/01/2020 15:57:31 -48.53, -26.16 38.89 12/01/2020 15:58:15 -48.58, -26.35 38.90 15.48 44
4 12/01/2020 16:47:15 51.83, 142.67 138.73 12/01/2020 16:46:44 51.84, 142.69 138.79 1.21 31
5 12/04/2020 08:13:44 -49.02, 89.98 38.79 12/04/2020 08:14:36 -49.07, 89.72 38.79 19.31 52
6 12/04/2020 09:03:58 50.60,-101.99 140.08 12/04/2020 09:03:34 50.60,-101.98 140.13 0.49 24
7 12/07/2020 00:29:57 -49.50,-153.89 38.73 12/07/2020 00:30:57 -49.54,-154.20 38.71 23.18 60
8 12/07/2020 01:20:37 49.60, 13.48 141.21 12/07/2020 01:20:20 49.59, 13.47 141.26 0.83 17
9 12/07/2020 01:57:07 -76.18, -44.61 80.92 12/07/2020 01:55:54 -76.64, -42.27 80.57 79.21 73
10 12/09/2020 16:46:12 -49.87, -37.80 38.62 12/09/2020 16:47:19 -49.94, -38.15 38.62 26.65 67
11 12/09/2020 17:37:41 47.14, 128.36 143.30 12/09/2020 17:37:30 47.15, 128.37 143.32 0.81 11
12 12/09/2020 18:18:38 -78.58, -21.99 64.50 12/09/2020 18:17:24 -78.93, -23.36 64.25 48.71 74
13 12/12/2020 09:54:11 46.59,-115.94 144.02 12/12/2020 09:54:07 46.58,-115.96 144.05 1.66 4
